Weather History for Lee's Summit, MO

Change the Weather History Date:

Tuesday, January 1, 2013

  Actual Average (KMKC) Record (KMKC)
Temperature  
Mean Temperature 19 °F -  
Max Temperature 24 °F 39 °F 64 °F (2005)
Min Temperature 12 °F 21 °F 1 °F (2001)
Degree Days  
Heating Degree Days 46    
Moisture  
Dew Point 11 °F    
Average Humidity 70    
Maximum Humidity 86    
Minimum Humidity 51    
Precipitation  
Precipitation 0.00 in - - ()
Sea Level Pressure  
Sea Level Pressure 30.28 in    
Wind  
Wind Speed 8 mph (North)    
Max Wind Speed 14 mph    
Max Gust Speed -    
Visibility 10 miles    
Events      
Averages and records for this station are not official NWS values.
T = Trace of Precipitation, MM = Missing Value Source: NWS Daily Summary

Daily Weather History Graph

Daily Weather History Graph

Search for Another Location

Airport:

Trip Planner

Search our weather history database for the weather conditions in past years. The results will help you decide how hot, cold, wet, or windy it might be!

Date:

Astronomy

Jan. 01, 2013 Rise Set
Actual Time 7:36 AM CST 5:06 PM CST
Civil Twilight 7:06 AM CST 5:36 PM CST
Nautical Twilight 6:33 AM CST 6:09 PM CST
Astronomical Twilight 6:00 AM CST 6:41 PM CST
Moon 9:35 PM CST (1/1) 9:51 AM CST (1/1)
Length of Visible Light 10h 29m
Length of Day
9h 29m
Waning Gibbous, 83% of the Moon is Illuminated
Jan 1
Waning Gibbous
Jan 4
Last Quarter
Jan 11
New
Jan 18
First Quarter
Jan 26
Full

Hourly Weather History & Observations

Time (CST) Temp. Windchill Dew Point Humidity Pressure Visibility Wind Dir Wind Speed Gust Speed Precip Events Conditions
12:53 AM 21.9 °F 11.0 °F 17.1 °F 82% 30.20 in 10.0 mi North 10.4 mph - 0.00 in   Overcast
1:53 AM 21.9 °F 10.4 °F 17.1 °F 82% 30.22 in 10.0 mi NNE 11.5 mph - N/A   Overcast
2:04 AM 21.2 °F 10.9 °F 17.6 °F 86% 30.19 in 10.0 mi NNE 9.2 mph - N/A   Overcast
2:53 AM 21.0 °F 9.3 °F 16.0 °F 81% 30.23 in 10.0 mi North 11.5 mph - N/A   Overcast
3:53 AM 19.9 °F 6.7 °F 16.0 °F 85% 30.22 in 10.0 mi North 13.8 mph - N/A   Overcast
4:42 AM 17.6 °F 5.0 °F 12.2 °F 79% 30.18 in 10.0 mi North 11.5 mph - N/A   Overcast
5:53 AM 15.1 °F 3.3 °F 10.0 °F 80% 30.25 in 10.0 mi North 9.2 mph - N/A   Clear
9:53 AM 16.0 °F 4.4 °F 8.1 °F 71% 30.32 in 10.0 mi North 9.2 mph - N/A   Partly Cloudy
10:53 AM 18.0 °F 8.7 °F 9.0 °F 68% 30.33 in 10.0 mi NNE 6.9 mph - N/A   Clear
11:53 AM 21.9 °F 14.5 °F 10.0 °F 60% 30.32 in 10.0 mi North 5.8 mph - N/A   Overcast
12:53 PM 21.9 °F 14.5 °F 9.0 °F 58% 30.31 in 10.0 mi NNW 5.8 mph - N/A   Overcast
1:53 PM 23.0 °F 15.8 °F 8.1 °F 53% 30.30 in 10.0 mi NNW 5.8 mph - N/A   Overcast
2:53 PM 24.1 °F 18.2 °F 8.1 °F 51% 30.30 in 10.0 mi North 4.6 mph - N/A   Overcast
3:53 PM 24.1 °F 17.0 °F 12.0 °F 60% 30.30 in 10.0 mi NNW 5.8 mph - N/A   Scattered Clouds
4:53 PM 21.9 °F 15.7 °F 10.0 °F 60% 30.30 in 10.0 mi NNW 4.6 mph - N/A   Clear
5:53 PM 19.9 °F - 7.0 °F 57% 30.30 in 10.0 mi Calm Calm - N/A   Clear
6:53 PM 19.0 °F - 8.1 °F 62% 30.30 in 10.0 mi Calm Calm - N/A   Clear
7:53 PM 18.0 °F - 8.1 °F 65% 30.31 in 10.0 mi Calm Calm - N/A   Clear
8:53 PM 17.1 °F 10.0 °F 8.1 °F 68% 30.31 in 10.0 mi SSW 4.6 mph - N/A   Clear
9:53 PM 14.0 °F 6.5 °F 7.0 °F 74% 30.29 in 10.0 mi SW 4.6 mph - N/A   Clear
10:53 PM 16.0 °F 10.4 °F 8.1 °F 71% 30.28 in 10.0 mi SW 3.5 mph - N/A   Clear
11:53 PM 12.0 °F 2.7 °F 7.0 °F 80% 30.30 in 10.0 mi SW 5.8 mph - N/A   Clear